[[{"header":{"parameterUnit":"m.s-1","parameterCategory":2,"la1":30.2991,"la2":30.254,"lo1":-89.0895,"lo2":-89.0444,"dy":0.0017,"dx":0.0017,"nx":28,"ny":28,"refTime":"2024-06-29T09:00:00:Z","depth":"0","parameterNumber":2,"parameterNumberName":"U-component_of_CURRENTS"},"data":[0,0,0,0,0,0,0,0,0,0,0,0,0,0,0,0,0,0,0,0,0,0,0,0,0,0,0,0,0,0,0,0,0,0,0,0,0,0,0,0,0,0,0,0,0,0,0,0,0,0,0,0,0,0,0,0,0,0,0.2662,0.2661,0,0.2623,0.2623,0.2622,0.2621,0.2621,0.2621,0.2621,0.2685,0.2686,0.2688,0,0,0,0,0,0,0,0,0,0,0,0,0,0.2763,0.2761,0.2662,0.2661,0.266,0.2623,0.2623,0.2622,0.2621,0.2621,0.2621,0.2621,0.2684,0.2686,0.2688,0,0,0,0,0,0,0,0,0,0,0,0,0,0.2724,0.2761,0.2662,0.2653,0.2651,0.2623,0.2623,0.2622,0.2621,0.2621,0.2621,0.2621,0.2684,0.2686,0.2688,0.2696,0,0,0.2695,0.2696,0,0,0,0,0,0,0,0,0.2726,0.2721,0.2655,0.2653,0.2652,0.2624,0.2682,0.2651,0.262,0.2635,0.2621,0.2622,0.2672,0.2675,0.267,0.2699,0.2702,0.2695,0.2697,0.2698,0.2698,0,0,0,0,0,0,0,0.2729,0.2722,0.2649,0.2654,0.2652,0.266,0.2655,0.2676,0.2657,0.2634,0.2633,0.2624,0.2673,0.2668,0.2672,0.2703,0.2695,0.2697,0.2699,0.27,0.2789,0.279,0,0,0,0,0,0,0.2726,0.2724,0.265,0.2648,0.2687,0.2658,0.2652,0.2635,0.2654,0.2656,0.2624,0.2624,0.2664,0.2669,0.2674,0.2718,0.2698,0.27,0.2701,0.2788,0.279,0.2791,0,0,0,0,0,0,0.2728,0.2719,0.2652,0.2684,0.2675,0.2655,0.2637,0.2634,0.263,0.2645,0.2649,0.2622,0.2664,0.2671,0.27,0.2719,0.2701,0.2703,0.2787,0.2789,0.279,0.2785,0,0,0,0,0,0,0.2731,0.272,0.2702,0.2683,0.2673,0.2621,0.2636,0.2633,0.2623,0.2623,0.2645,0.2651,0.2665,0.2697,0.2702,0.2722,0.2705,0.2786,0.2788,0.279,0.2784,0.2786,0.2788,0,0,0,0,0,0.2734,0.2686,0.2701,0.2691,0.265,0.262,0.2616,0.2605,0.2623,0.2607,0.2641,0.265,0.2713,0.2699,0.2706,0.2726,0.2785,0.2787,0.279,0.2783,0.2786,0.2788,0,0,0,0,0,0,0.2693,0.2681,0.2696,0.2641,0.2635,0.2618,0.259,0.2606,0.2618,0.2627,0.2657,0.2665,0.2702,0.2714,0.2698,0.276,0.2754,0.2757,0.2746,0.2749,0.2751,0.2736,0.2707,0,0,0,0,0,0.2685,0.2658,0.2655,0.2609,0.2606,0.261,0.2597,0.2602,0.261,0.2614,0.2636,0.2672,0.2716,0.2731,0.2759,0.2785,0.2809,0.2806,0.2808,0.281,0.2803,0.2887,0.2897,0.2798,0.2798,0.2798,0,0,0.2652,0.2642,0.2624,0.2601,0.2595,0.2586,0.2602,0.2579,0.2585,0.2622,0.2634,0.2678,0.2726,0.276,0.2778,0.2772,0.2845,0.2813,0.2814,0.2806,0.2891,0.29,0.2909,0.28,0.28,0.2799,0,0,0.2586,0.2572,0.2546,0.2545,0.2541,0.255,0.2549,0.2552,0.2564,0.2584,0.2633,0.2684,0.272,0.2768,0.2798,0.2828,0.2857,0.2845,0.2839,0.2922,0.293,0.2938,0.2952,0.2961,0.2843,0.2843,0.2843,0,0.2564,0.253,0.2529,0.2515,0.2513,0.2539,0.253,0.254,0.2556,0.2585,0.2582,0.2691,0.2723,0.2806,0.2817,0.2833,0.2866,0.2824,0.2924,0.2933,0.2941,0.2954,0.2964,0.2843,0.2843,0.2843,0.2843,0,0.2496,0.2481,0.2457,0.2465,0.2458,0.2446,0.2473,0.249,0.252,0.2549,0.2623,0.2677,0.2745,0.2773,0.28,0.289,0.2888,0.2921,0.2915,0.2951,0.2961,0.2972,0.2843,0.2843,0.2843,0.2843,0,0,0.2452,0.2425,0.2425,0.243,0.2442,0.243,0.2451,0.249,0.2526,0.2559,0.2615,0.2694,0.274,0.2778,0.2838,0.2903,0.2978,0.2933,0.2937,0.2938,0.3122,0.2971,0.2968,0.3045,0.3047,0.3049,0.3094,0,0.2425,0.2393,0.2389,0.2374,0.2372,0.2406,0.2422,0.2462,0.251,0.2566,0.2649,0.2718,0.2739,0.2792,0.286,0.2963,0.3013,0.296,0.3093,0.3095,0.2953,0.2978,0.278,0.2792,0.3105,0.3107,0.3108,0,0.2395,0.2379,0.2359,0.2363,0.2365,0.2361,0.2419,0.2435,0.2525,0.2566,0.2651,0.2722,0.2824,0.2841,0.2998,0.297,0.3037,0.31,0.3104,0.2972,0.2965,0.2814,0.28,0.2748,0.3125,0.3124,0.3123,0,0.2396,0.2371,0.2357,0.2354,0.2356,0.2365,0.2376,0.2444,0.2477,0.258,0.2626,0.2749,0.2818,0.2935,0.3037,0.3042,0.3194,0.322,0.3136,0.3125,0.2981,0.2951,0.2924,0.333,0.333,0.333,0.3329,0,0.2397,0.239,0.2353,0.2347,0.234,0.2347,0.2372,0.2409,0.2479,0.2526,0.2626,0.2694,0.2855,0.2957,0.3047,0.3096,0.3201,0.3124,0.3135,0.2967,0.2937,0.2905,0.2878,0.3331,0.3331,0.333,0.333,0,0.243,0.2398,0.2379,0.2356,0.234,0.2341,0.2345,0.2381,0.2437,0.2507,0.2543,0.2673,0.277,0.2892,0.3069,0.3082,0.3055,0.3167,0.2911,0.2889,0.2707,0.2685,0.2526,0.2477,0.3059,0.3056,0.3053,0,0.2451,0.2441,0.2382,0.2358,0.2346,0.2335,0.2338,0.2363,0.24,0.249,0.253,0.2631,0.2701,0.2836,0.2849,0.2916,0.292,0.2798,0.2761,0.2648,0.2638,0.2541,0.2508,0.257,0.2563,0.2558,0.2553,0,0.25,0.2471,0.245,0.2384,0.2356,0.2337,0.2337,0.2345,0.2389,0.2428,0.2477,0.2533,0.258,0.253,0.258,0.262,0.2594,0.2684,0.2673,0.2313,0.2106,0.2079,0.2557,0.2505,0.251,0.2514,0.2516,0.2518,0.2539,0.2526,0.2466,0.2404,0.2364,0.2329,0.2281,0.2294,0.2294,0.2269,0.2372,0.234,0.2312,0.2305,0.2311,0.2157,0.2226,0.213,0.2132,0.2061,0.1934,0.225,0.2146,0.2149,0.2151,0.2153,0.2155,0,0.2564,0.2523,0.2483,0.2374,0.2303,0.2294,0.2261,0.2181,0.2119,0.2116,0.2092,0.1999,0.192,0.1891,0.1735,0.1655,0.1613,0.1642,0.1509,0.153,0.1908,0.1809,0.1498,0.1498,0.1498,0.1499,0.1499,0.1499,0.2567,0.2516,0.2469,0.2315,0.2239,0.2088,0.204,0.1937,0.1882,0.1716,0.1606,0.1606,0.1623,0.1461,0.1322,0.1301,0.1264,0.1097,0.1232,0.154,0.1589,0.1635,0.154,0.1177,0.1177,0.0764,0.076,0.0758]},{"header":{"parameterUnit":"m.s-1","parameterCategory":2,"la1":30.2991,"la2":30.254,"lo1":-89.0895,"lo2":-89.0444,"dy":0.0017,"dx":0.0017,"nx":28,"ny":28,"refTime":"2024-06-29T09:00:00:Z","depth":"0","parameterNumber":3,"parameterNumberName":"V-component_of_CURRENTS"},"data":[0,0,0,0,0,0,0,0,0,0,0,0,0,0,0,0,0,0,0,0,0,0,0,0,0,0,0,0,0,0,0,0,0,0,0,0,0,0,0,0,0,0,0,0,0,0,0,0,0,0,0,0,0,0,0,0,0,0,0.033,0.0331,0,0.0425,0.0426,0.0427,0.0464,0.0463,0.0463,0.0463,0.0495,0.0496,0.0497,0,0,0,0,0,0,0,0,0,0,0,0,0,0.0189,0.0192,0.033,0.0331,0.0332,0.0425,0.0426,0.0427,0.0464,0.0463,0.0463,0.0463,0.0494,0.0496,0.0497,0,0,0,0,0,0,0,0,0,0,0,0,0,0.0264,0.0192,0.033,0.0361,0.0365,0.0424,0.0426,0.0428,0.0464,0.0463,0.0463,0.0462,0.0494,0.0495,0.0497,0.0516,0,0,0.0502,0.0503,0,0,0,0,0,0,0,0,0.026,0.0269,0.0356,0.0359,0.0364,0.0432,0.0388,0.0454,0.0464,0.0427,0.0463,0.0462,0.0468,0.0472,0.0492,0.0518,0.0519,0.0502,0.0503,0.0504,0.0505,0,0,0,0,0,0,0,0.0254,0.0265,0.0368,0.0357,0.0362,0.0374,0.0384,0.0401,0.0447,0.043,0.0433,0.0443,0.047,0.049,0.0493,0.052,0.0502,0.0504,0.0505,0.0506,0.0554,0.0554,0,0,0,0,0,0,0.0243,0.0261,0.0365,0.0371,0.0309,0.0377,0.0388,0.041,0.0449,0.0455,0.0443,0.0444,0.0487,0.0491,0.0494,0.0531,0.0504,0.0506,0.0507,0.0553,0.0554,0.0554,0,0,0,0,0,0,0.024,0.0252,0.0361,0.0316,0.0331,0.038,0.0405,0.0413,0.0432,0.046,0.0464,0.0454,0.0487,0.0491,0.052,0.0531,0.0506,0.0508,0.0553,0.0553,0.0554,0.0596,0,0,0,0,0,0,0.0235,0.025,0.0263,0.0316,0.0333,0.04,0.0405,0.0415,0.0439,0.0442,0.047,0.0473,0.0487,0.0517,0.0522,0.0533,0.0509,0.0553,0.0553,0.0554,0.0594,0.0598,0.0601,0,0,0,0,0,0.023,0.0252,0.0263,0.0275,0.0349,0.0401,0.0411,0.0443,0.044,0.0457,0.0478,0.0472,0.0523,0.052,0.0524,0.0537,0.0552,0.0553,0.0554,0.0593,0.0597,0.0601,0,0,0,0,0,0,0.0195,0.0259,0.0272,0.0312,0.0353,0.0407,0.0426,0.0442,0.0473,0.0471,0.0488,0.0494,0.0521,0.0519,0.0516,0.0549,0.0532,0.0533,0.056,0.0564,0.0567,0.0576,0.0511,0,0,0,0,0,0.0193,0.0227,0.0283,0.0312,0.0334,0.0376,0.0399,0.0421,0.0456,0.047,0.0492,0.0507,0.0528,0.0538,0.0556,0.058,0.058,0.0585,0.0588,0.0591,0.06,0.0628,0.0635,0.0556,0.0556,0.0556,0,0,0.0181,0.0224,0.024,0.0306,0.034,0.0383,0.039,0.0427,0.0458,0.0466,0.051,0.0523,0.0536,0.0569,0.0579,0.0569,0.0608,0.0592,0.0595,0.0602,0.0629,0.0637,0.0644,0.0556,0.0556,0.0556,0,0,0.0183,0.022,0.025,0.0291,0.0346,0.0381,0.0389,0.0445,0.0466,0.0509,0.0519,0.0545,0.0574,0.0598,0.0609,0.0637,0.0627,0.0628,0.0656,0.0683,0.069,0.0697,0.0688,0.0694,0.0628,0.0629,0.0629,0,0.0162,0.0221,0.0263,0.0308,0.0345,0.0379,0.042,0.0451,0.0507,0.053,0.0523,0.0585,0.0593,0.064,0.065,0.0648,0.0647,0.0643,0.0689,0.0696,0.0702,0.0692,0.0698,0.0631,0.063,0.063,0.063,0,0.0197,0.0242,0.0264,0.0337,0.0379,0.0418,0.0472,0.0504,0.0526,0.0562,0.0609,0.0632,0.067,0.0669,0.0671,0.0714,0.0694,0.0693,0.0684,0.0713,0.07,0.0705,0.0634,0.0633,0.0632,0.0632,0,0,0.015,0.0264,0.0271,0.0315,0.0399,0.0438,0.0489,0.0555,0.0594,0.063,0.0686,0.0715,0.0727,0.0739,0.0743,0.0762,0.0794,0.0745,0.0745,0.0744,0.0831,0.0811,0.0814,0.0805,0.0807,0.0808,0.0798,0,0.016,0.0246,0.0304,0.0379,0.0429,0.0486,0.0538,0.0596,0.0642,0.0704,0.0727,0.0779,0.0754,0.0777,0.0794,0.0805,0.0813,0.0796,0.0797,0.0796,0.0783,0.0822,0.083,0.0823,0.0803,0.0804,0.0805,0,0.0178,0.0237,0.0313,0.0419,0.0445,0.0491,0.0585,0.0637,0.0723,0.0759,0.0811,0.0839,0.0881,0.0855,0.0879,0.087,0.0853,0.0847,0.0846,0.0821,0.0788,0.0794,0.0832,0.0845,0.0812,0.0811,0.0811,0,0.014,0.0245,0.0307,0.0343,0.0461,0.0498,0.0557,0.0648,0.0709,0.0798,0.0855,0.09,0.0934,0.0934,0.0919,0.0907,0.0936,0.0918,0.0877,0.0873,0.0878,0.0873,0.0939,0.0933,0.0933,0.0933,0.0933,0,0.0143,0.019,0.0291,0.0329,0.0403,0.0483,0.057,0.0632,0.0737,0.0825,0.0879,0.0948,0.0959,0.098,0.0949,0.093,0.0958,0.0893,0.0884,0.0888,0.0885,0.0892,0.0895,0.0932,0.0933,0.0933,0.0933,0,0.0104,0.0171,0.0243,0.0353,0.0393,0.0441,0.0584,0.0658,0.0743,0.086,0.0895,0.0991,0.1016,0.1007,0.1005,0.097,0.0964,0.093,0.0916,0.0906,0.0878,0.0882,0.0901,0.0967,0.0892,0.0892,0.0892,0,0.01,0.0133,0.0245,0.0303,0.0356,0.0449,0.0534,0.0645,0.0732,0.0886,0.0947,0.101,0.1069,0.1056,0.1004,0.0952,0.0957,0.0917,0.0902,0.0892,0.0891,0.0869,0.0924,0.091,0.091,0.091,0.091,0,0.0096,0.0125,0.0195,0.0305,0.0394,0.0494,0.0613,0.0675,0.0815,0.0901,0.1014,0.107,0.1084,0.1053,0.0988,0.0956,0.0951,0.0912,0.0928,0.0939,0.0897,0.095,0.0871,0.0909,0.0909,0.0909,0.091,0.091,0.0095,0.0136,0.0237,0.0339,0.0437,0.0543,0.0607,0.0725,0.0836,0.0959,0.102,0.1099,0.1099,0.1022,0.0981,0.0926,0.0937,0.0907,0.0917,0.0897,0.0963,0.0864,0.0878,0.0878,0.0878,0.0878,0.0878,0,0.0129,0.0196,0.0287,0.041,0.05,0.055,0.0679,0.0728,0.0825,0.0942,0.1016,0.1085,0.1056,0.1029,0.0952,0.0934,0.0954,0.0936,0.0931,0.0995,0.0929,0.0934,0.0931,0.0931,0.0931,0.0931,0.0931,0.0931,0.0169,0.0262,0.0313,0.0461,0.053,0.0618,0.067,0.0725,0.0807,0.0905,0.0976,0.1059,0.1145,0.0976,0.0949,0.0958,0.1018,0.0959,0.1027,0.0982,0.0981,0.0979,0.0986,0.0994,0.0995,0.1108,0.1109,0.1109]}],[{"header":{"parameterUnit":"m.s-1","parameterCategory":2,"la1":30.2991,"la2":30.254,"lo1":-89.0895,"lo2":-89.0444,"dy":0.0017,"dx":0.0017,"nx":28,"ny":28,"refTime":"2024-06-29T09:00:00:Z","depth":"2","parameterNumber":2,"parameterNumberName":"U-component_of_CURRENTS"},"data":[0,0,0,0,0,0,0,0,0,0,0,0,0,0,0,0,0,0,0,0,0,0,0,0,0,0,0,0,0,0,0,0,0,0,0,0,0,0,0,0,0,0,0,0,0,0,0,0,0,0,0,0,0,0,0,0,0,0,0.0675,0.0676,0,0.088,0.0884,0.0887,0.1214,0.1218,0.1222,0.1226,0.1451,0.1453,0.1456,0,0,0,0,0,0,0,0,0,0,0,0,0,0.0733,0.0731,0.0675,0.0676,0.0677,0.0879,0.0884,0.0888,0.1213,0.1218,0.1223,0.1228,0.1451,0.1453,0.1456,0,0,0,0,0,0,0,0,0,0,0,0,0,0.0818,0.073,0.0675,0.0849,0.0865,0.0878,0.0884,0.089,0.1212,0.1218,0.1224,0.123,0.145,0.1453,0.1456,0.1353,0,0,0.1466,0.1468,0,0,0,0,0,0,0,0,0.0813,0.0818,0.0822,0.0836,0.0854,0.101,0.0986,0.1039,0.1211,0.1101,0.1226,0.1233,0.1288,0.1305,0.1358,0.1364,0.1373,0.1466,0.1468,0.147,0.1471,0,0,0,0,0,0,0,0.0806,0.0812,0.0777,0.0822,0.0841,0.0972,0.0991,0.1,0.1173,0.1111,0.113,0.1119,0.1301,0.1354,0.1365,0.1377,0.1466,0.1469,0.1471,0.1473,0.1596,0.1597,0,0,0,0,0,0,0.0724,0.0804,0.077,0.0781,0.0826,0.0963,0.0987,0.097,0.1174,0.1205,0.1114,0.1133,0.1346,0.1361,0.1374,0.1446,0.147,0.1473,0.1475,0.1595,0.1596,0.1598,0,0,0,0,0,0,0.0725,0.0719,0.0761,0.0783,0.0795,0.0952,0.0934,0.097,0.1103,0.1171,0.1209,0.1215,0.1351,0.137,0.1432,0.1451,0.1474,0.1477,0.1593,0.1595,0.1597,0.1472,0,0,0,0,0,0,0.0725,0.0718,0.073,0.0776,0.079,0.0858,0.0927,0.0969,0.1071,0.1103,0.1266,0.1291,0.1357,0.1426,0.1435,0.1455,0.148,0.1591,0.1594,0.1596,0.1474,0.1469,0.1465,0,0,0,0,0,0.0727,0.0743,0.0729,0.0727,0.0783,0.0858,0.0885,0.1029,0.107,0.1166,0.1227,0.1291,0.1452,0.1427,0.1438,0.146,0.159,0.1593,0.1596,0.1476,0.147,0.1465,0,0,0,0,0,0,0.0869,0.0775,0.0764,0.0775,0.083,0.0909,0.1002,0.104,0.1164,0.1204,0.1267,0.1295,0.1384,0.1423,0.1395,0.1513,0.1546,0.1551,0.1452,0.1446,0.1442,0.1558,0.1483,0,0,0,0,0,0.0855,0.0812,0.0791,0.0825,0.0838,0.0907,0.0962,0.1039,0.1112,0.1184,0.1246,0.1325,0.1385,0.1418,0.1502,0.1505,0.1592,0.1545,0.1541,0.1536,0.1643,0.1752,0.1767,0.1607,0.1607,0.1607,0,0,0.0942,0.0866,0.0869,0.0844,0.0902,0.0919,0.0972,0.1076,0.1115,0.1168,0.1268,0.132,0.1393,0.1449,0.149,0.1486,0.1603,0.154,0.1534,0.1648,0.1757,0.1773,0.1787,0.1609,0.1609,0.1609,0,0,0.1032,0.1004,0.0976,0.0991,0.1005,0.1015,0.1034,0.1096,0.1181,0.1224,0.128,0.1342,0.1413,0.1469,0.1499,0.1509,0.1595,0.1531,0.1569,0.1667,0.1682,0.1697,0.1714,0.1732,0.15,0.15,0.15,0,0.1089,0.1067,0.1019,0.0994,0.1021,0.1037,0.1074,0.112,0.1199,0.1251,0.1276,0.1398,0.1441,0.1492,0.1525,0.1502,0.1563,0.1558,0.166,0.1678,0.1695,0.1711,0.1732,0.1494,0.1495,0.1496,0.1496,0,0.1168,0.1146,0.1165,0.1074,0.1111,0.1173,0.1162,0.1211,0.125,0.1294,0.1402,0.1435,0.1535,0.1512,0.1532,0.1647,0.1646,0.1649,0.1664,0.1703,0.1716,0.174,0.1486,0.1488,0.149,0.1491,0,0,0.1226,0.1193,0.1203,0.1186,0.1165,0.12,0.1227,0.1276,0.1314,0.1386,0.1462,0.1544,0.1601,0.1648,0.1635,0.1703,0.1803,0.1744,0.1752,0.1747,0.1991,0.1705,0.1703,0.1825,0.1832,0.1837,0.1907,0,0.1281,0.1262,0.1242,0.1275,0.1266,0.1275,0.1274,0.1326,0.1391,0.1453,0.1518,0.1615,0.1628,0.1672,0.1745,0.1827,0.1886,0.1784,0.1978,0.1984,0.1713,0.1729,0.1619,0.1653,0.1932,0.1936,0.1939,0,0.1333,0.1293,0.1326,0.1307,0.1315,0.134,0.1387,0.1419,0.1488,0.1544,0.1657,0.172,0.1839,0.1837,0.2025,0.1968,0.2034,0.2062,0.2064,0.19,0.1748,0.1689,0.1688,0.198,0.1977,0.1974,0.1971,0,0.1376,0.136,0.1386,0.139,0.1348,0.1401,0.1439,0.1488,0.1549,0.1669,0.1735,0.1852,0.1951,0.2073,0.2136,0.2139,0.23,0.2282,0.2068,0.2044,0.2053,0.2017,0.2467,0.2467,0.2467,0.2467,0.2467,0,0.1405,0.1433,0.1417,0.1429,0.1485,0.1465,0.1559,0.1607,0.1671,0.175,0.184,0.1904,0.2052,0.2122,0.2177,0.2161,0.2338,0.2128,0.2074,0.1983,0.1943,0.2346,0.2331,0.2469,0.2469,0.2468,0.2468,0,0.147,0.1445,0.1468,0.1473,0.15,0.158,0.1686,0.1726,0.1787,0.1895,0.1957,0.2041,0.2144,0.2167,0.2313,0.2191,0.22,0.2148,0.1965,0.1886,0.1876,0.1854,0.1971,0.1962,0.1954,0.1948,0.1943,0,0.1542,0.1504,0.1554,0.1588,0.1626,0.1717,0.175,0.1818,0.1873,0.1955,0.2004,0.2118,0.2118,0.2103,0.2015,0.1962,0.2087,0.1726,0.1711,0.1905,0.1842,0.1831,0.182,0.1654,0.1647,0.1641,0.1636,0,0.161,0.1596,0.1625,0.1688,0.1762,0.18,0.1895,0.1925,0.1953,0.1984,0.1995,0.1994,0.1984,0.1836,0.1684,0.1642,0.171,0.1592,0.1946,0.1726,0.1593,0.1532,0.1537,0.1584,0.1589,0.1593,0.1596,0.1598,0.1707,0.1752,0.1743,0.18,0.1848,0.1844,0.1854,0.1862,0.1862,0.1818,0.1876,0.1762,0.1678,0.1402,0.1324,0.1263,0.1384,0.1282,0.131,0.1342,0.1222,0.1076,0.0946,0.0947,0.0949,0.095,0.0951,0,0.1824,0.1801,0.1846,0.1875,0.1856,0.1888,0.1871,0.1775,0.169,0.1654,0.1576,0.1285,0.1142,0.1155,0.0982,0.0835,0.0947,0.0796,0.0989,0.1036,0.108,0.0958,0.0607,0.0606,0.0605,0.0605,0,0,0.1875,0.1909,0.1886,0.1831,0.1828,0.1738,0.1689,0.1542,0.1442,0.124,0.1132,0.1076,0.1059,0.081,0.0737,0.0684,0.0878,0.0649,0.0921,0.1199,0.1243,0.1337,0.1193,0,0,0,0,0]},{"header":{"parameterUnit":"m.s-1","parameterCategory":2,"la1":30.2991,"la2":30.254,"lo1":-89.0895,"lo2":-89.0444,"dy":0.0017,"dx":0.0017,"nx":28,"ny":28,"refTime":"2024-06-29T09:00:00:Z","depth":"2","parameterNumber":3,"parameterNumberName":"V-component_of_CURRENTS"},"data":[0,0,0,0,0,0,0,0,0,0,0,0,0,0,0,0,0,0,0,0,0,0,0,0,0,0,0,0,0,0,0,0,0,0,0,0,0,0,0,0,0,0,0,0,0,0,0,0,0,0,0,0,0,0,0,0,0,0,0.032,0.032,0,0.0368,0.0368,0.0369,0.0339,0.0338,0.0337,0.0336,0.0292,0.0292,0.0291,0,0,0,0,0,0,0,0,0,0,0,0,0,0.0204,0.0206,0.0319,0.0321,0.0322,0.0368,0.0368,0.0369,0.0339,0.0338,0.0337,0.0336,0.0292,0.0292,0.0291,0,0,0,0,0,0,0,0,0,0,0,0,0,0.0249,0.0206,0.0319,0.0316,0.0316,0.0368,0.0368,0.0369,0.0339,0.0338,0.0336,0.0335,0.0292,0.0292,0.0291,0.0318,0,0,0.029,0.029,0,0,0,0,0,0,0,0,0.0246,0.0253,0.0315,0.0316,0.0317,0.035,0.0312,0.0349,0.034,0.0326,0.0336,0.0334,0.0307,0.0305,0.0312,0.0316,0.0314,0.029,0.029,0.029,0.029,0,0,0,0,0,0,0,0.0243,0.025,0.0334,0.0317,0.0318,0.0313,0.0317,0.0319,0.0319,0.0327,0.0326,0.0339,0.0306,0.0313,0.0311,0.0314,0.029,0.029,0.0289,0.0289,0.0307,0.0307,0,0,0,0,0,0,0.0249,0.0248,0.0333,0.0336,0.0283,0.0317,0.0321,0.0337,0.0321,0.0319,0.0341,0.0338,0.0314,0.0311,0.0309,0.0331,0.029,0.0289,0.0289,0.0306,0.0307,0.0308,0,0,0,0,0,0,0.0246,0.0256,0.0331,0.0296,0.0306,0.0321,0.0339,0.0339,0.0335,0.0333,0.0328,0.0335,0.0313,0.031,0.0314,0.0329,0.0289,0.0289,0.0305,0.0306,0.0307,0.0381,0,0,0,0,0,0,0.0243,0.0255,0.0257,0.0297,0.0308,0.0356,0.0341,0.0341,0.0349,0.0345,0.0327,0.0322,0.0311,0.0315,0.0313,0.0328,0.0288,0.0304,0.0306,0.0307,0.0378,0.0384,0.039,0,0,0,0,0,0.0238,0.0242,0.0257,0.0267,0.0315,0.0357,0.0362,0.0364,0.035,0.0352,0.0347,0.0322,0.0321,0.0316,0.0314,0.0329,0.0304,0.0305,0.0307,0.0375,0.0383,0.039,0,0,0,0,0,0,0.0168,0.0241,0.0258,0.0277,0.0317,0.0353,0.0353,0.0363,0.0363,0.0351,0.034,0.0336,0.0343,0.0326,0.032,0.0335,0.0305,0.0306,0.0357,0.0365,0.0371,0.0371,0.0288,0,0,0,0,0,0.0165,0.0198,0.0259,0.0271,0.0292,0.0324,0.0337,0.0348,0.0362,0.0359,0.036,0.0352,0.0353,0.035,0.0346,0.0361,0.0344,0.0365,0.0372,0.0377,0.0375,0.0377,0.0384,0.0313,0.0313,0.0313,0,0,0.0139,0.0185,0.02,0.0262,0.0286,0.0332,0.0325,0.0348,0.0379,0.0355,0.0381,0.0374,0.0361,0.0379,0.0379,0.0364,0.0389,0.0379,0.0384,0.0379,0.038,0.0387,0.0393,0.0314,0.0314,0.0313,0,0,0.0121,0.0149,0.018,0.0224,0.028,0.0316,0.0325,0.0373,0.038,0.0417,0.0404,0.0411,0.0418,0.042,0.0418,0.0455,0.0422,0.0446,0.0481,0.0484,0.049,0.0495,0.0487,0.0491,0.045,0.045,0.0451,0,0.0088,0.0143,0.0189,0.0236,0.0274,0.0313,0.0355,0.0381,0.0425,0.0436,0.0426,0.0451,0.044,0.0464,0.0477,0.047,0.046,0.0458,0.0494,0.0498,0.0502,0.0492,0.0495,0.0454,0.0454,0.0453,0.0453,0,0.0114,0.0154,0.017,0.0261,0.0303,0.0339,0.0403,0.0432,0.0452,0.0483,0.0508,0.051,0.052,0.0522,0.0512,0.0537,0.0517,0.0503,0.0478,0.0514,0.0501,0.0503,0.046,0.0458,0.0457,0.0456,0,0,0.0057,0.017,0.0175,0.0224,0.032,0.036,0.0415,0.0481,0.0513,0.0545,0.0585,0.0594,0.0592,0.0589,0.0581,0.0586,0.061,0.0559,0.0558,0.0556,0.0609,0.0615,0.0617,0.0604,0.0605,0.0605,0.0591,0,0.0065,0.015,0.0211,0.0291,0.0343,0.0406,0.046,0.0518,0.056,0.061,0.0614,0.0644,0.0619,0.0628,0.0632,0.0622,0.0617,0.0614,0.0569,0.0567,0.0573,0.0621,0.0561,0.0545,0.0592,0.0593,0.0593,0,0.0081,0.0142,0.0216,0.0324,0.035,0.0402,0.0495,0.0548,0.0619,0.0647,0.068,0.0693,0.0718,0.0686,0.0681,0.0681,0.0645,0.0628,0.0626,0.0605,0.0577,0.0514,0.0546,0.0596,0.0595,0.0595,0.0595,0,0.0038,0.0147,0.0205,0.0245,0.0369,0.0401,0.0461,0.0545,0.0601,0.0669,0.0718,0.074,0.076,0.0735,0.0708,0.0695,0.0695,0.067,0.0635,0.0634,0.0559,0.0552,0.0647,0.0647,0.0647,0.0647,0.0647,0,0.0038,0.0086,0.0185,0.0221,0.0293,0.0377,0.0452,0.0512,0.0607,0.069,0.0726,0.0789,0.0772,0.0781,0.0734,0.0705,0.0712,0.065,0.0639,0.0584,0.0579,0.0599,0.0594,0.0646,0.0646,0.0646,0.0646,0,-0.0007,0.0059,0.0131,0.0239,0.0279,0.0323,0.0458,0.0526,0.0601,0.0714,0.0742,0.0826,0.0844,0.082,0.0785,0.0742,0.0707,0.0679,0.0617,0.06,0.0631,0.063,0.0649,0.0649,0.0649,0.065,0.065,0,-0.0014,0.0018,0.0123,0.0186,0.0237,0.0322,0.0404,0.0506,0.0592,0.0743,0.0805,0.0858,0.0911,0.0874,0.0794,0.0722,0.0716,0.0621,0.0588,0.0649,0.0635,0.0633,0.0632,0.051,0.0509,0.0508,0.0508,0,-0.0022,0.0002,0.0064,0.0184,0.0273,0.037,0.0483,0.0547,0.0684,0.0769,0.0887,0.0934,0.0918,0.0834,0.0746,0.0692,0.0637,0.0604,0.0686,0.0531,0.052,0.0506,0.0509,0.05,0.0501,0.0502,0.0502,0.0502,-0.0033,0.0009,0.0104,0.0225,0.0321,0.0434,0.0491,0.0609,0.072,0.0843,0.0894,0.0933,0.0849,0.0717,0.0647,0.0582,0.0601,0.0539,0.054,0.0542,0.0541,0.0533,0.0514,0.0515,0.0515,0.0516,0.0516,0,0.0001,0.0075,0.0171,0.0306,0.0402,0.045,0.058,0.0623,0.0723,0.0816,0.0874,0.0769,0.07,0.0644,0.052,0.046,0.0443,0.0448,0.0411,0.0418,0.0424,0.0417,0.0356,0.0356,0.0356,0.0356,0,0,0.0039,0.0143,0.0211,0.0381,0.0456,0.0542,0.0595,0.0639,0.0696,0.0744,0.0757,0.0759,0.0697,0.0556,0.0465,0.0416,0.0439,0.041,0.0536,0.0507,0.0514,0.0466,0.0462,0,0,0,0,0]}],[{"header":{"parameterUnit":"m.s-1","parameterCategory":2,"la1":30.2991,"la2":30.254,"lo1":-89.0895,"lo2":-89.0444,"dy":0.0017,"dx":0.0017,"nx":28,"ny":28,"refTime":"2024-06-29T09:00:00:Z","depth":"4","parameterNumber":2,"parameterNumberName":"U-component_of_CURRENTS"},"data":[0,0,0,0,0,0,0,0,0,0,0,0,0,0,0,0,0,0,0,0,0,0,0,0,0,0,0,0,0,0,0,0,0,0,0,0,0,0,0,0,0,0,0,0,0,0,0,0,0,0,0,0,0,0,0,0,0,0,-0.0712,-0.0713,0,-0.0757,-0.0757,-0.0757,-0.0783,-0.0784,-0.0785,-0.0786,-0.0961,-0.0965,-0.0969,0,0,0,0,0,0,0,0,0,0,0,0,0,-0.061,-0.0612,-0.0712,-0.0713,-0.0715,-0.0757,-0.0757,-0.0757,-0.0783,-0.0784,-0.0785,-0.0786,-0.096,-0.0964,-0.0969,0,0,0,0,0,0,0,0,0,0,0,0,0,-0.0648,-0.0612,-0.0712,-0.0738,-0.0741,-0.0757,-0.0757,-0.0757,-0.0783,-0.0784,-0.0785,-0.0786,-0.0958,-0.0964,-0.097,-0.0985,0,0,-0.0988,-0.0991,0,0,0,0,0,0,0,0,-0.0646,-0.0651,-0.0733,-0.0736,-0.074,-0.0772,-0.0786,-0.0842,-0.0783,-0.076,-0.0786,-0.0787,-0.0914,-0.0923,-0.0918,-0.0993,-0.1001,-0.0989,-0.0992,-0.0995,-0.0996,0,0,0,0,0,0,0,-0.0643,-0.0649,-0.0723,-0.0734,-0.0738,-0.0734,-0.074,-0.0795,-0.0827,-0.0762,-0.0766,-0.0781,-0.0915,-0.0911,-0.0922,-0.1003,-0.0988,-0.0994,-0.0997,-0.1,-0.1164,-0.1165,0,0,0,0,0,0,-0.0653,-0.0647,-0.0722,-0.0725,-0.0702,-0.0736,-0.0743,-0.0755,-0.0824,-0.0836,-0.078,-0.0782,-0.0901,-0.0915,-0.0929,-0.0969,-0.0995,-0.1,-0.1004,-0.1163,-0.1164,-0.1165,0,0,0,0,0,0,-0.065,-0.0659,-0.072,-0.0693,-0.0701,-0.0738,-0.075,-0.0755,-0.0773,-0.0838,-0.0851,-0.0797,-0.0902,-0.0921,-0.1004,-0.0976,-0.1003,-0.1008,-0.1162,-0.1163,-0.1164,-0.104,0,0,0,0,0,0,-0.0647,-0.0657,-0.069,-0.0693,-0.0703,-0.0762,-0.075,-0.0756,-0.0783,-0.0787,-0.0857,-0.0872,-0.0904,-0.0995,-0.101,-0.0985,-0.1013,-0.1161,-0.1163,-0.1164,-0.1043,-0.1037,-0.1031,0,0,0,0,0,-0.0643,-0.0672,-0.0691,-0.0702,-0.074,-0.0764,-0.0769,-0.0792,-0.0783,-0.0807,-0.0849,-0.0871,-0.1014,-0.1001,-0.1019,-0.0994,-0.1161,-0.1162,-0.1164,-0.1046,-0.1038,-0.1032,0,0,0,0,0,0,-0.0653,-0.0679,-0.0699,-0.0739,-0.077,-0.0772,-0.0801,-0.08,-0.0842,-0.0832,-0.0892,-0.0912,-0.0965,-0.1017,-0.1001,-0.1051,-0.1087,-0.1092,-0.0991,-0.0985,-0.0979,-0.0965,-0.1018,0,0,0,0,0,-0.0671,-0.0698,-0.0724,-0.0764,-0.0778,-0.0788,-0.0806,-0.0796,-0.0825,-0.0842,-0.0872,-0.092,-0.098,-0.1016,-0.1064,-0.1106,-0.1162,-0.1103,-0.1097,-0.1091,-0.1096,-0.1193,-0.1195,-0.1171,-0.1171,-0.1171,0,0,-0.0687,-0.0708,-0.0726,-0.0769,-0.0787,-0.0787,-0.08,-0.0805,-0.0801,-0.0858,-0.0864,-0.0901,-0.099,-0.102,-0.1048,-0.1064,-0.1118,-0.1094,-0.1087,-0.1096,-0.1195,-0.1197,-0.1199,-0.1172,-0.1172,-0.1171,0,0,-0.0705,-0.075,-0.0767,-0.0775,-0.0794,-0.0797,-0.0803,-0.0786,-0.0793,-0.0791,-0.0838,-0.0891,-0.0927,-0.1005,-0.105,-0.1062,-0.1083,-0.104,-0.0997,-0.1089,-0.1092,-0.1094,-0.1115,-0.1121,-0.1037,-0.1037,-0.1037,0,-0.0724,-0.0736,-0.0781,-0.0777,-0.0776,-0.08,-0.0782,-0.0799,-0.08,-0.0832,-0.0781,-0.088,-0.093,-0.1053,-0.1005,-0.1048,-0.1059,-0.1004,-0.1078,-0.1083,-0.1088,-0.1109,-0.1117,-0.1031,-0.1032,-0.1032,-0.1033,0,-0.0731,-0.0734,-0.0741,-0.0745,-0.0762,-0.0742,-0.076,-0.0773,-0.0746,-0.076,-0.0824,-0.087,-0.0933,-0.0942,-0.0947,-0.1017,-0.0995,-0.1053,-0.1084,-0.1082,-0.1105,-0.1115,-0.1023,-0.1025,-0.1027,-0.1028,0,0,-0.0755,-0.0744,-0.075,-0.0735,-0.0716,-0.0734,-0.0745,-0.0795,-0.0854,-0.0809,-0.0877,-0.0903,-0.0899,-0.0951,-0.0987,-0.1039,-0.1031,-0.1003,-0.1011,-0.0999,-0.1149,-0.0937,-0.0929,-0.1067,-0.107,-0.1072,-0.1129,0,-0.0736,-0.0725,-0.072,-0.0699,-0.0675,-0.0694,-0.0732,-0.0779,-0.0812,-0.0887,-0.0946,-0.0994,-0.092,-0.0914,-0.0951,-0.1043,-0.1059,-0.1006,-0.1175,-0.118,-0.0974,-0.0936,-0.108,-0.1137,-0.114,-0.1142,-0.1143,0,-0.0717,-0.071,-0.0676,-0.0673,-0.0677,-0.066,-0.0751,-0.0775,-0.0911,-0.0929,-0.0976,-0.1018,-0.1072,-0.1003,-0.1109,-0.1051,-0.1048,-0.1107,-0.1113,-0.0972,-0.0988,-0.116,-0.1163,-0.1162,-0.116,-0.1159,-0.1158,0,-0.0707,-0.0676,-0.0655,-0.0635,-0.0645,-0.0642,-0.0654,-0.0771,-0.0859,-0.0934,-0.1,-0.1072,-0.1101,-0.1132,-0.1134,-0.1105,-0.1263,-0.1284,-0.1112,-0.1097,-0.1329,-0.1327,-0.1353,-0.1353,-0.1353,-0.1353,-0.1353,0,-0.0652,-0.0648,-0.0633,-0.0614,-0.0628,-0.0607,-0.0677,-0.0724,-0.0844,-0.0916,-0.0981,-0.1019,-0.1118,-0.1202,-0.1183,-0.1139,-0.1293,-0.1079,-0.1099,-0.1268,-0.1258,-0.1333,-0.1329,-0.1355,-0.1355,-0.1354,-0.1354,0,-0.0632,-0.0621,-0.0609,-0.0606,-0.0603,-0.06,-0.0667,-0.075,-0.0823,-0.091,-0.0909,-0.1026,-0.0991,-0.1129,-0.1212,-0.1191,-0.121,-0.1166,-0.1295,-0.1327,-0.0963,-0.0954,-0.0964,-0.0957,-0.0952,-0.0947,-0.0942,0,-0.0633,-0.0604,-0.0622,-0.0615,-0.0588,-0.0593,-0.0628,-0.0706,-0.0743,-0.0842,-0.085,-0.09,-0.0911,-0.0934,-0.1007,-0.1028,-0.1009,-0.1073,-0.1011,-0.0905,-0.0925,-0.0925,-0.0923,-0.0933,-0.0932,-0.093,-0.0928,0,-0.0619,-0.0628,-0.0638,-0.0608,-0.0601,-0.0641,-0.0617,-0.0661,-0.0688,-0.0819,-0.073,-0.0732,-0.0725,-0.0735,-0.0795,-0.0799,-0.1072,-0.1011,-0.1022,-0.0964,-0.0868,-0.0893,-0.0899,-0.0908,-0.0911,-0.0913,-0.0914,0,-0.0647,-0.065,-0.0635,-0.0597,-0.0599,-0.0567,-0.062,-0.0562,-0.0618,-0.0655,-0.0572,-0.0593,-0.0628,-0.0607,-0.0629,-0.0641,-0.06,-0.0651,-0.068,-0.0704,-0.0589,-0.0427,-0.0327,0,0,0,0,0,-0.0607,-0.0599,-0.0606,-0.0556,-0.0552,-0.0516,-0.0553,-0.0597,-0.0605,-0.0502,-0.0531,-0.0445,-0.0408,-0.0435,-0.0383,-0.0509,-0.064,-0.0454,-0.0724,-0.0794,-0.0818,-0.0705,0,0,0,0,0,0,-0.0594,-0.0609,-0.0593,-0.0485,-0.0417,-0.0408,-0.0411,-0.0451,-0.0375,-0.0383,-0.0358,-0.0383,-0.0363,-0.038,-0.0346,-0.0359,-0.0518,-0.0464,-0.0463,-0.0781,-0.0802,-0.0821,-0.0713,0,0,0,0,0]},{"header":{"parameterUnit":"m.s-1","parameterCategory":2,"la1":30.2991,"la2":30.254,"lo1":-89.0895,"lo2":-89.0444,"dy":0.0017,"dx":0.0017,"nx":28,"ny":28,"refTime":"2024-06-29T09:00:00:Z","depth":"4","parameterNumber":3,"parameterNumberName":"V-component_of_CURRENTS"},"data":[0,0,0,0,0,0,0,0,0,0,0,0,0,0,0,0,0,0,0,0,0,0,0,0,0,0,0,0,0,0,0,0,0,0,0,0,0,0,0,0,0,0,0,0,0,0,0,0,0,0,0,0,0,0,0,0,0,0,0.0408,0.0409,0,0.0398,0.0397,0.0396,0.0418,0.042,0.0422,0.0423,0.0502,0.0503,0.0503,0,0,0,0,0,0,0,0,0,0,0,0,0,0.0344,0.0344,0.0408,0.0409,0.041,0.0398,0.0397,0.0396,0.0418,0.042,0.0422,0.0424,0.0502,0.0503,0.0503,0,0,0,0,0,0,0,0,0,0,0,0,0,0.0346,0.0345,0.0408,0.0428,0.043,0.0398,0.0397,0.0395,0.0417,0.042,0.0423,0.0425,0.0502,0.0503,0.0503,0.0455,0,0,0.0506,0.0506,0,0,0,0,0,0,0,0,0.0346,0.0347,0.0424,0.0427,0.0429,0.0422,0.0404,0.0424,0.0417,0.041,0.0423,0.0426,0.0489,0.0491,0.0466,0.0459,0.0462,0.0506,0.0506,0.0506,0.0507,0,0,0,0,0,0,0,0.0346,0.0347,0.0393,0.0425,0.0428,0.0403,0.0406,0.0406,0.0428,0.0411,0.0415,0.0431,0.049,0.0465,0.0468,0.0463,0.0506,0.0506,0.0507,0.0507,0.0471,0.047,0,0,0,0,0,0,0.0372,0.0347,0.0393,0.0394,0.0406,0.0403,0.0406,0.0412,0.0426,0.0433,0.0429,0.0433,0.0462,0.0468,0.0472,0.0436,0.0506,0.0507,0.0507,0.0472,0.0471,0.0469,0,0,0,0,0,0,0.0371,0.0376,0.0394,0.038,0.0382,0.0404,0.0409,0.0411,0.0426,0.0441,0.0448,0.0449,0.0465,0.0471,0.0476,0.044,0.0507,0.0508,0.0474,0.0472,0.047,0.0353,0,0,0,0,0,0,0.0368,0.0375,0.0405,0.0381,0.0384,0.039,0.0408,0.0409,0.0435,0.044,0.046,0.0467,0.0467,0.0474,0.0476,0.0442,0.0509,0.0476,0.0473,0.047,0.0359,0.0347,0.0338,0,0,0,0,0,0.0366,0.0375,0.0405,0.0413,0.0418,0.0392,0.0388,0.0405,0.0434,0.0429,0.0435,0.0468,0.046,0.0473,0.0476,0.0441,0.0477,0.0474,0.0471,0.0364,0.035,0.0338,0,0,0,0,0,0,0.0356,0.0379,0.0411,0.043,0.043,0.04,0.0421,0.042,0.0416,0.0431,0.0447,0.0452,0.0438,0.0463,0.0478,0.0425,0.0475,0.0473,0.0393,0.038,0.037,0.038,0.0509,0,0,0,0,0,0.0373,0.0399,0.0402,0.0425,0.0438,0.0436,0.044,0.0431,0.0423,0.0425,0.0425,0.0431,0.0416,0.0423,0.0413,0.039,0.0443,0.0373,0.0362,0.0353,0.0364,0.0386,0.0378,0.0459,0.0459,0.0459,0,0,0.0376,0.0401,0.0414,0.0429,0.0443,0.041,0.0443,0.0439,0.0395,0.0434,0.0393,0.0396,0.0403,0.0358,0.0357,0.0384,0.036,0.0349,0.034,0.0357,0.0382,0.0374,0.0367,0.0457,0.0457,0.0457,0,0,0.0372,0.0424,0.0437,0.0426,0.0446,0.0421,0.0429,0.0398,0.0388,0.0344,0.0349,0.0341,0.0324,0.03,0.0295,0.0232,0.03,0.023,0.0185,0.0204,0.0198,0.0193,0.0262,0.0265,0.0227,0.0227,0.0227,0,0.0381,0.0396,0.0432,0.0421,0.0412,0.0427,0.0393,0.0359,0.0318,0.0301,0.0331,0.028,0.0292,0.0233,0.02,0.0207,0.0249,0.0226,0.019,0.0187,0.0184,0.0256,0.026,0.0221,0.0221,0.0222,0.0223,0,0.0361,0.0376,0.0382,0.0374,0.0353,0.0332,0.0292,0.0256,0.0254,0.022,0.0182,0.018,0.0164,0.0146,0.0154,0.0116,0.0164,0.017,0.0221,0.0169,0.0248,0.0254,0.0212,0.0214,0.0216,0.0218,0,0,0.0372,0.037,0.0388,0.0364,0.0326,0.0294,0.0225,0.0167,0.0126,0.0098,0.006,0.0022,0.0048,0.0045,0.0048,0.0056,0.0069,0.01,0.0104,0.0168,0.015,0.0057,0.0057,0.0062,0.0062,0.0062,0.0219,0,0.036,0.035,0.0334,0.0273,0.0244,0.0205,0.0133,0.0069,0.0039,-0.0008,0.0002,-0.0021,-0.0,0.0003,0.0004,0.0049,0.0079,0.0029,0.0194,0.0201,0.0121,0.0057,0.0062,0.0224,0.0225,0.0227,0.0227,0,0.0344,0.0339,0.0328,0.0218,0.0207,0.0179,0.0088,0.0011,-0.0056,-0.0077,-0.0092,-0.009,-0.0086,-0.0047,0.0024,-0.0009,0.0071,0.0116,0.0123,0.0083,0.0116,0.0286,0.024,0.0239,0.0238,0.0237,0.0236,0,0.0362,0.0305,0.0317,0.029,0.0191,0.0188,0.0133,0.0042,-0.004,-0.0073,-0.0111,-0.0114,-0.0085,-0.0021,0.0071,0.0053,0.0173,0.0168,0.0169,0.0168,0.0264,0.0267,0.0239,0.0238,0.0238,0.0238,0.0237,0,0.0331,0.0322,0.0357,0.0363,0.0319,0.0238,0.0177,0.011,0.0009,-0.0095,-0.0097,-0.016,-0.0079,-0.0026,0.0067,0.0136,0.0188,0.0157,0.018,0.0214,0.021,0.027,0.0272,0.0244,0.0242,0.0241,0.024,0,0.0335,0.037,0.0363,0.0352,0.035,0.0338,0.0217,0.0124,0.006,-0.0062,-0.0071,-0.0155,-0.012,-0.0027,0.0093,0.013,0.0218,0.0249,0.0317,0.0345,0.021,0.0204,0.0236,0.0234,0.0232,0.023,0.0228,0,0.0342,0.0363,0.042,0.0442,0.0473,0.043,0.0361,0.0211,0.0079,-0.0087,-0.0163,-0.0166,-0.0203,-0.0046,0.0011,0.0182,0.0192,0.0278,0.0183,0.0179,0.02,0.0197,0.0194,0.0225,0.0225,0.0224,0.0224,0,0.0324,0.0407,0.0417,0.0509,0.0512,0.0395,0.0297,0.02,-0.0019,-0.0092,-0.0209,-0.0201,-0.0183,-0.0108,0.0041,0.0146,0.0223,0.0256,0.026,0.0172,0.0166,0.0189,0.0188,0.0216,0.0217,0.0218,0.0218,0,0.0349,0.0372,0.0468,0.051,0.052,0.042,0.032,0.0159,0.0015,-0.0183,-0.0217,-0.0201,-0.0209,-0.013,-0.0016,0.0083,0.0066,0.0118,0.0129,0.0138,0.0019,-0.0008,-0.0001,0,0,0,0,0,0.0345,0.0387,0.0435,0.0462,0.0474,0.0471,0.0282,0.014,-0.0058,-0.0127,-0.0178,-0.0169,-0.0109,-0.0112,-0.0026,-0.0092,0.0077,0.0002,0.0144,0.0176,0.0184,0.0046,0,0,0,0,0,0,0.035,0.0418,0.0431,0.0447,0.0473,0.0397,0.0304,0.0133,0.0054,-0.0081,-0.0036,-0.0111,-0.0035,-0.0084,0.0014,0.0014,0.0112,0.0005,0.0006,0.0171,0.0179,0.0186,0.0046,0,0,0,0,0]}]]